THORAD AGENA D DEB, 42524

Orbit data source: Space-Track

THORAD AGENA D DEB, 42524 is space debris in SSO originally from a launch on Wed, 08 Apr 1970 UTC launched from the Air Force Western Test Range (AFWTR). Debris objects in space refer to the collection of defunct objects orbiting the Earth. Examples of debris include non-operational satellites, rocket bodies, and fragments generated from explosions, collisions, or faulty payload assembly.

Loading next visibility...
Identifier
42524, 1970-025SE
Orbit
SSO
Country
Flag of USUS
Related business
Manufacturer
Unknown
Mission
Spacecraft
Bus & Motor
Unknown
Mass
Unknown
Launch date (UTC)
1970-04-08 (56 years ago)
Launch vehicle
Unknown
Launch site
Air Force Western Test Range (AFWTR)
Object type
Payload
Rocket body
Debris
Shape & HBR
Unknown
Radar Cross Section
Small (<0.1 m²)

Expand to show TLE details & history
Last TLE update: 2 weeks ago

TLE from 2 weeks ago
0 THORAD AGENA D DEB
1 42524U 70025SE  26242.99701451  .00000505  00000-0  60960-3 0  9997
2 42524  99.7976 308.1531 0029753   3.5543 120.0588 13.71640586232690
Epoch: 2026-08-30T23:55Z
TLE epoch observation values (Epoch: 2026-08-30T23:55:42.053Z)
Latitude
54.96724°
Longitude
164.22798°
Altitude
1,013.733 km
Speed
7.345 km/s
True Right ascension
09h 29m 21s
True Declination
54° 48' 40"
Sunlit
Object was in daylight at epoch
Visualization orbit readout
Latitude
Unknown
Longitude
Unknown
Altitude
Unknown
Speed
Unknown
Apparent Right ascension
Unknown
Apparent Declination
Unknown
Sunlit
N/A
Visualization observer readout
Local Sidereal Time
09:27:45
Azimuth
Unknown
Elevation
Unknown
Doppler factor
Unknown
Orbital elements
Apogee altitude
1,012.89 km
Perigee altitude
969.039 km
Semi-major axis
7,369.102 km
Eccentricity
0.00298
Inclination
99.7976°
RAAN
308.1531°
Arg. of periapsis
3.5543°
True anomaly
120.35334°
Mean anomaly
120.0588°
Eccentric anomaly
120.20613°
Mean motion
3.43101 °/min
Orbital period
104.93 mins
BSTAR
0.0006096

Documentation

Showing up to 5 results
|